Wetbulb
57.03 57.42 56.85 56.41 56.69 57.22 57.56 57.30 55.95 54.43 54.09 53.55 52.96 52.17 52.71 53.73 52.21 45.51 43.21 44.67 42.71 36.71 36.91 39.93 40.22 37.18 37.25 36.30 34.34 34.19 34.53 34.13 31.39 28.29 27.13 27.42 24.88 30.34 27.16 28.60 27.59 26.75 21.32 20.33 20.66 18.35 19.81 35.24 33.43 30.28 32.15 33.71 34.27 33.56
55.82 57.36 56.68 56.16 56.73 57.25 57.49 57.16 56.31 54.60 53.79 53.32 52.64 51.62 51.82 53.19 53.33 46.71 42.45 44.53 43.16 39.15 37.62 40.73 40.69 40.35 39.83 39.34 37.05 33.83 35.89 32.98 34.28 30.10 28.64 28.65 28.67 28.40 28.83 25.11 29.75 25.98 29.92 25.71 26.40 26.35 33.64 33.87 33.78 35.23 35.59 34.36 33.08 32.79
53.25 57.03 56.47 56.04 56.63 57.14 57.28 56.98 56.29 54.91 54.03 53.41 52.29 50.99 51.72 52.83 53.10 46.14 41.08 42.07 41.23 37.81 37.63 38.38 37.76 40.66 42.28 40.98 41.32 36.11 35.48 37.28 35.95 36.56 33.47 32.33 30.99 30.14 25.61 26.81 26.00 31.86 32.94 28.85 29.46 31.34 33.06 33.98 34.66 35.76 35.43 34.59 35.57 35.03
52.40 56.74 56.06 55.83 56.29 56.86 56.95 56.92 56.29 54.86 53.54 52.82 51.82 50.76 51.79 52.23 50.38 46.66 41.73 40.75 39.80 37.69 33.52 35.52 42.04 38.45 41.36 41.01 40.72 39.74 38.89 37.62 36.65 35.30 32.67 26.38 27.98 33.32 29.13 30.79 29.98 32.92 32.20 30.03 29.12 30.54 32.22 32.98 34.05 35.02 35.69 35.66 35.17 35.67
51.90 55.55 55.68 55.76 56.18 56.67 56.69 56.75 55.99 54.86 53.62 52.86 51.93 51.20 51.16 50.85 49.25 44.54 41.75 41.45 41.06 37.35 33.11 34.03 37.09 39.04 39.43 40.08 40.15 39.79 38.87 36.29 33.78 32.26 31.00 27.92 31.97 31.53 29.05 29.37 27.20 32.73 31.83 29.10 28.63 33.08 31.89 31.44 34.45 36.23 35.26 34.45 34.67 34.78
51.58 55.77 55.51 55.76 56.17 56.60 56.33 55.86 54.98 54.36 53.71 53.44 52.01 51.46 50.50 50.13 47.68 39.43 34.82 39.99 43.64 40.70 35.48 27.61 35.40 35.86 37.98 39.08 38.47 38.00 37.68 35.68 33.92 32.86 30.89 31.89 34.36 31.36 21.63 23.09 31.82 34.56 34.98 34.89 33.35 32.77 33.80 34.21 36.20 36.04 34.47 34.83 35.37 35.03
51.17 55.28 55.10 55.75 56.15 56.06 55.72 54.80 54.14 53.75 53.26 53.12 52.27 51.22 49.82 48.46 43.13 36.44 34.98 38.34 45.80 39.95 34.57 27.72 27.61 34.71 35.53 36.07 35.51 35.74 35.49 33.96 34.36 32.01 31.46 31.71 31.63 30.60 21.89 20.87 32.55 34.01 33.42 32.96 33.76 34.52 31.63 33.85 33.68 35.29 35.39 36.50 37.11 35.80
52.00 55.19 54.77 55.29 55.95 55.83 55.11 54.27 53.66 53.10 52.96 52.52 51.73 50.59 49.46 48.79 45.74 40.32 43.08 46.21 41.21 35.49 33.74 25.45 24.99 29.83 33.35 31.75 31.13 33.31 32.34 32.66 32.40 31.16 31.09 30.65 30.57 27.19 21.99 30.37 33.15 35.39 33.58 32.91 33.90 33.60 33.26 34.24 34.57 34.53 35.74 35.76 34.95 34.60
52.56 54.90 54.86 55.30 55.90 55.49 54.69 53.99 53.06 52.61 52.23 51.75 50.08 48.67 43.95 40.80 36.99 39.44 47.75 43.94 39.34 34.31 25.63 22.49 23.34 22.78 33.05 30.62 31.26 32.24 31.33 26.17 30.23 27.24 29.42 29.29 25.43 22.36 30.58 31.91 33.20 34.62 33.16 33.70 32.80 32.60 33.03 33.16 33.64 34.34 33.28 34.05 33.00 33.71
51.07 54.01 54.30 54.66 55.57 54.95 54.10 52.95 52.01 51.67 51.40 49.76 43.61 37.68 35.12 39.03 46.54 44.59 38.64 34.19 32.95 31.98 31.90 25.38 27.62 25.78 31.14 27.30 25.55 26.71 24.37 23.85 21.59 26.49 28.65 22.94 26.04 30.76 32.46 34.17 34.69 35.39 34.90 34.22 31.14 29.75 31.06 31.65 32.79 32.43 32.64 33.75 33.49 33.74
50.92 54.16 54.10 54.78 54.65 53.61 52.59 51.70 51.40 50.85 48.32 41.64 38.04 36.86 40.58 45.91 38.19 34.48 30.43 28.33 27.93 24.96 29.56 29.39 29.31 28.57 32.60 29.05 27.74 28.42 22.94 23.21 19.39 23.92 24.68 22.39 22.10 27.91 31.06 31.51 32.48 33.01 35.39 34.66 34.25 34.41 34.31 33.56 33.14 32.75 33.07 33.14 33.33 33.40
51.36 53.69 54.43 54.33 53.20 52.21 51.33 50.50 50.56 45.35 42.87 42.14 41.57 42.77 39.79 34.84 30.58 27.37 24.92 28.43 25.48 26.09 29.43 29.26 29.21 30.64 30.83 32.52 29.07 25.90 22.34 20.22 17.51 25.36 20.44 21.25 25.39 29.66 30.69 31.86 31.89 33.70 34.02 35.00 35.49 35.62 35.02 33.91 33.72 32.68 32.06 32.23 32.93 33.50
51.44 52.34 54.09 53.29 52.24 51.54 50.64 50.31 48.59 47.46 45.89 41.13 37.77 33.46 30.27 26.51 20.34 24.20 20.51 23.48 23.24 28.64 29.38 29.38 28.03 29.92 29.96 30.67 27.32 23.12 18.01 19.23 25.98 18.45 21.86 24.04 27.18 30.44 30.61 31.62 32.88 34.14 35.04 34.68 34.89 35.15 35.42 34.46 34.39 33.38 33.39 33.64 33.01 32.64
51.37 51.13 53.33 52.05 51.17 50.43 49.76 48.80 48.01 45.76 39.96 34.54 30.66 23.17 26.55 19.27 23.36 25.40 26.73 27.40 28.87 30.18 30.71 29.34 27.30 28.99 28.33 26.56 24.33 18.67 23.33 22.80 15.08 15.36 20.56 24.71 27.38 29.84 29.77 31.10 32.06 30.76 31.40 31.14 32.38 33.04 33.19 32.93 32.76 33.52 33.30 33.01 32.32 32.27
50.68 52.33 51.61 50.50 50.04 49.46 48.59 48.31 47.15 42.25 37.63 31.04 29.99 27.74 22.89 27.19 27.65 27.85 28.84 29.16 29.61 33.58 30.85 28.65 27.81 28.07 21.68 21.22 21.40 22.32 24.72 22.14 20.41 20.77 23.46 26.95 28.15 29.36 29.17 30.55 30.21 31.19 32.12 32.25 31.91 32.45 32.87 32.50 31.83 32.00 33.00 32.90 32.48 32.80
51.24 51.65 49.35 49.33 48.49 48.09 48.17 47.33 43.97 41.14 35.64 30.78 26.81 24.60 27.49 27.78 26.82 29.34 29.15 29.43 30.84 31.51 30.94 29.31 23.97 19.44 21.10 22.51 18.05 19.42 17.90 17.41 21.57 24.56 27.05 28.53 28.29 28.38 28.86 30.50 31.40 30.94 30.63 31.71 32.01 32.12 32.40 32.22 32.22 32.49 32.42 32.55 32.69 33.01
51.28 46.25 48.84 47.95 47.66 47.92 47.12 41.61 38.79 33.66 30.32 23.76 25.68 30.67 29.67 31.43 30.11 29.24 32.16 30.82 35.29 31.79 25.57 24.61 16.09 18.31 20.97 13.09 17.13 21.57 20.67 22.89 25.56 26.91 28.62 28.89 29.01 29.72 29.98 29.92 31.16 32.21 32.43 32.11 31.99 32.43 32.65 33.40 32.61 31.85 31.52 33.09 32.82 33.26
45.45 47.62 47.85 47.54 46.55 45.04 41.22 39.16 34.07 29.16 25.66 30.46 25.51 29.62 30.75 31.16 31.25 31.31 31.21 34.68 32.37 30.14 29.30 26.36 25.36 21.47 18.97 16.56 19.75 24.77 25.94 27.20 27.83 28.14 28.94 29.70 29.63 29.76 31.87 31.74 32.73 32.59 32.11 32.14 32.18 32.29 32.40 32.08 31.53 30.90 31.57 31.72 31.98 32.02
46.10 46.10 47.14 46.66 44.61 40.64 35.75 35.30 33.86 23.34 27.64 30.43 31.30 32.20 32.06 31.14 31.69 33.24 35.10 33.48 33.41 33.57 30.66 23.04 19.23 20.08 24.57 25.51 25.77 26.34 26.84 28.10 28.39 29.49 30.17 30.39 30.71 31.61 32.21 32.08 32.06 31.48 31.65 31.79 32.13 32.32 32.40 32.47 30.86 30.96 29.72 31.82 27.63 30.90
46.77 46.61 46.50 46.19 43.76 37.31 32.84 32.27 33.78 30.26 28.82 31.13 32.05 31.00 31.07 30.54 31.28 32.75 34.68 32.27 32.66 31.85 25.03 20.70 24.60 27.36 27.63 28.82 29.73 29.48 29.93 30.45 29.47 28.20 29.32 30.86 31.50 31.29 31.56 31.73 31.81 31.94 31.95 32.11 32.43 35.56 32.58 32.49 32.89 33.24 33.04 34.14 35.12 33.28
44.77 45.26 45.44 41.07 36.96 36.15 34.16 31.75 30.48 31.41 31.93 30.75 31.62 31.75 29.51 30.53 30.02 29.81 30.08 31.74 29.02 27.18 25.60 29.91 29.49 30.95 31.71 31.88 32.10 32.37 31.65 31.39 30.09 30.14 29.88 28.34 31.52 31.18 31.58 32.15 31.88 31.63 31.41 31.28 30.96 31.74 33.26 31.42 32.60 33.41 36.04 35.95 35.63 35.18
43.17 44.57 38.74 39.01 32.82 32.57 32.62 34.94 33.51 33.64 31.43 31.23 30.91 30.59 28.96 27.99 27.17 28.32 30.38 28.49 28.21 32.73 30.70 30.42 31.63 32.86 31.89 31.60 32.25 32.03 33.09 32.41 31.75 31.68 35.09 34.24 31.17 31.12 31.47 32.02 31.38 29.23 30.87 30.63 31.86 31.42 31.39 32.06 32.91 34.24 36.20 36.33 37.65 36.43
42.82 40.18 34.55 33.34 31.66 31.81 29.86 34.21 28.77 29.33 28.54 28.15 29.31 26.67 26.11 26.63 27.72 30.74 27.18 28.93 30.24 31.14 32.89 33.26 33.32 33.61 33.55 33.33 32.57 32.32 32.65 31.94 31.11 31.18 32.08 31.72 31.74 31.95 31.60 31.81 32.29 31.72 30.57 31.02 32.38 31.96 31.70 35.49 35.65 36.08 35.91 35.67 35.62 35.57
41.00 34.08 30.43 29.04 29.71 27.42 32.07 29.14 30.97 29.76 28.59 26.81 26.00 23.51 25.59 25.63 27.60 24.91 25.27 27.36 29.27 30.74 30.74 31.69 32.10 30.70 30.34 30.36 30.20 31.36 32.51 32.37 31.88 31.54 31.74 31.25 30.46 30.86 32.15 32.22 32.38 32.23 32.47 32.14 31.78 31.54 31.53 31.84 34.76 33.45 34.81 34.45 34.54 34.40
30.93 28.79 29.64 26.93 30.35 24.57 26.88 26.92 27.91 27.28 26.19 26.84 26.02 24.93 24.53 26.81 22.54 24.56 25.42 26.40 27.26 28.01 30.13 29.98 30.10 30.41 29.11 29.14 29.79 30.80 32.86 32.50 31.03 30.53 31.51 32.15 31.21 30.09 29.85 30.16 30.12 31.56 32.54 30.54 29.71 30.46 33.37 33.52 33.53 32.79 31.74 33.02 33.23 33.80
23.59 27.30 26.48 25.94 25.65 25.23 25.87 24.89 26.41 26.85 27.04 26.20 25.77 25.02 24.80 24.41 20.13 20.34 24.78 26.53 27.13 27.19 27.21 28.78 28.78 27.82 28.09 29.58 29.52 29.06 31.38 32.70 32.08 30.74 30.89 31.80 31.50 30.27 28.97 28.80 28.46 29.12 32.68 32.56 32.45 33.05 32.94 33.32 33.23 32.82 32.36 32.75 34.09 33.93
22.73 23.29 27.74 30.23 29.38 29.10 27.67 28.57 28.94 27.95 26.29 24.14 23.98 24.66 22.69 17.27 19.81 25.03 27.21 27.55 26.13 26.95 28.93 29.46 30.61 29.97 28.39 25.86 30.24 31.92 31.86 32.54 32.45 32.32 32.26 32.06 32.26 32.21 31.47 29.28 28.96 30.93 33.92 34.19 34.64 34.34 33.72 33.44 32.70 32.53 32.32 32.92 33.57 33.58
28.63 29.29 26.21 27.98 28.20 29.42 27.25 27.53 26.75 26.04 25.96 26.46 26.91 23.42 22.87 23.13 23.13 27.31 28.64 29.94 28.07 30.32 28.76 29.90 31.86 31.45 30.88 31.54 32.04 31.53 31.13 31.63 32.19 31.84 31.00 30.56 30.61 31.54 32.12 32.76 33.75 37.20 33.56 33.06 32.88 33.42 34.70 34.12 33.51 33.02 32.83 32.25 32.92 33.87
28.46 30.37 29.69 26.75 27.81 27.78 27.25 27.08 26.47 27.20 27.86 27.77 25.69 25.12 25.85 27.83 29.13 28.98 28.88 26.78 29.72 28.61 27.75 27.54 25.47 30.32 30.19 30.26 30.70 30.83 30.93 30.78 29.00 27.12 26.92 24.36 29.93 28.45 30.70 31.62 30.99 30.22 30.61 33.38 35.68 36.28 35.92 35.78 33.91 33.15 33.22 32.96 33.31 33.87
28.37 30.21 28.17 27.35 25.26 24.50 26.77 27.08 26.12 27.41 28.01 28.74 28.91 28.49 28.67 28.82 25.28 23.17 26.93 27.16 27.28 27.87 28.31 26.67 27.45 29.68 27.64 29.15 28.19 28.39 29.57 30.20 30.19 28.77 26.28 25.30 25.82 29.21 30.07 30.03 30.23 30.66 31.47 34.03 33.40 33.72 35.51 35.16 33.69 32.13 31.65 32.12 32.44 32.94
29.72 28.69 26.77 26.33 23.34 25.98 27.00 28.40 28.87 28.61 28.13 27.75 27.90 27.52 26.86 27.21 29.00 27.92 28.89 25.90 24.28 25.13 27.89 24.86 25.16 27.12 28.82 28.59 28.30 28.27 27.60 28.73 29.24 30.14 29.88 29.03 29.07 29.19 29.75 29.43 29.98 30.74 32.04 32.75 31.56 31.06 30.68 32.66 31.76 30.23 29.87 29.68 30.74 31.96
28.38 27.16 26.28 23.48 24.58 27.03 28.18 27.80 27.42 27.50 27.36 27.37 26.79 26.87 27.03 27.42 27.02 29.03 28.31 27.35 27.90 28.38 31.17 30.38 28.21 27.47 29.16 29.51 29.87 29.82 33.63 29.69 29.96 30.49 30.41 28.92 28.75 28.62 29.04 29.24 30.30 30.92 30.90 31.32 31.08 31.68 31.76 31.02 30.09 29.86 29.45 29.32 29.87 31.75
26.34 27.00 26.64 25.73 23.04 24.86 26.36 25.97 25.92 23.84 24.96 25.12 25.83 26.61 27.06 27.61 27.14 29.36 24.58 24.37 27.55 28.56 28.82 28.86 29.62 30.38 29.99 29.92 29.78 29.69 31.83 28.70 31.51 34.69 34.43 33.51 32.74 31.15 29.75 29.00 29.76 31.82 30.73 30.70 30.69 30.07 29.46 29.08 28.76 28.70 29.02 29.68 30.17 30.38
MSLP
1006.07 1006.34 1007.41 1008.48 1009.12 1009.49 1010.15 1010.84 1011.45 1011.80 1012.26 1012.64 1012.84 1012.72 1012.57 1012.34 1012.35 1012.66 1014.00 1013.95 1014.30 1015.92 1016.63 1016.37 1016.22 1016.33 1016.80 1017.19 1018.03 1019.13 1019.73 1020.12 1020.85 1021.89 1022.81 1023.28 1023.15 1022.69 1022.83 1022.76 1022.95 1023.53 1024.39 1025.42 1025.89 1024.98 1022.24 1020.18 1020.23 1020.45 1020.67 1020.59 1020.68 1020.86
1004.88 1004.85 1005.93 1007.15 1008.05 1008.63 1009.39 1010.12 1010.74 1011.21 1011.84 1012.28 1012.65 1012.62 1012.48 1012.28 1012.29 1012.47 1013.91 1014.06 1014.22 1015.57 1017.36 1017.07 1017.07 1016.94 1016.92 1016.92 1017.21 1018.60 1019.13 1019.44 1020.04 1021.53 1022.78 1023.37 1023.46 1023.28 1023.22 1023.10 1022.55 1023.08 1022.57 1023.00 1023.66 1022.39 1020.78 1020.30 1020.11 1020.14 1020.32 1020.60 1020.85 1021.04
1004.13 1003.75 1004.54 1005.69 1006.89 1007.78 1008.66 1009.36 1010.08 1010.67 1011.36 1012.01 1012.38 1012.50 1012.37 1012.20 1012.18 1012.42 1013.68 1014.13 1014.51 1016.41 1017.76 1017.59 1017.60 1017.31 1016.94 1017.08 1017.02 1017.64 1018.97 1018.99 1019.67 1019.79 1021.42 1022.56 1023.05 1022.91 1023.16 1022.91 1022.41 1021.75 1021.56 1022.10 1022.34 1021.06 1020.54 1020.47 1020.37 1020.38 1020.60 1020.87 1021.08 1021.35
1003.27 1002.66 1003.41 1004.56 1005.88 1006.96 1007.88 1008.68 1009.46 1010.25 1010.87 1011.77 1012.19 1012.38 1012.28 1012.22 1012.30 1012.37 1013.57 1014.31 1014.46 1015.84 1017.33 1018.37 1017.88 1017.98 1017.75 1017.42 1017.22 1017.17 1017.56 1018.68 1019.48 1020.37 1021.52 1022.45 1022.80 1022.48 1022.86 1022.37 1022.18 1021.07 1021.23 1021.38 1021.31 1020.78 1020.79 1020.62 1020.53 1020.63 1020.81 1021.00 1021.26 1021.52
1002.51 1002.43 1002.58 1003.66 1005.11 1006.22 1007.13 1007.96 1008.88 1009.87 1010.47 1011.48 1012.10 1012.39 1012.35 1012.38 1012.43 1012.80 1013.74 1014.49 1014.34 1015.04 1017.41 1018.87 1018.72 1018.78 1018.58 1018.14 1017.90 1017.80 1018.12 1019.06 1020.42 1021.58 1022.43 1022.85 1022.51 1022.83 1023.17 1023.00 1022.29 1020.99 1020.48 1020.65 1020.44 1019.97 1020.19 1020.43 1020.59 1020.70 1020.90 1021.05 1021.15 1021.24
1001.72 1001.37 1001.76 1003.23 1004.49 1005.49 1006.40 1007.30 1008.47 1009.50 1010.29 1011.27 1012.02 1012.44 1012.60 1012.75 1012.70 1012.95 1014.29 1014.56 1014.35 1014.46 1016.86 1019.36 1019.86 1019.56 1019.32 1019.08 1018.96 1019.20 1019.52 1020.12 1020.82 1021.53 1022.23 1022.12 1021.96 1022.20 1023.16 1023.08 1020.87 1020.08 1019.62 1019.58 1019.62 1019.76 1019.94 1020.12 1020.39 1020.53 1020.68 1020.79 1020.94 1021.06
1000.60 1000.68 1000.97 1002.26 1003.58 1004.78 1005.87 1006.73 1008.07 1009.18 1010.11 1011.13 1012.00 1012.44 1012.63 1012.70 1013.17 1013.81 1014.30 1014.68 1014.39 1014.57 1016.67 1020.12 1020.57 1020.29 1019.99 1020.01 1020.31 1020.47 1020.50 1021.17 1021.44 1022.13 1022.46 1022.54 1022.52 1022.44 1022.91 1022.54 1020.54 1020.01 1019.56 1019.38 1019.32 1019.51 1020.10 1020.07 1020.20 1020.23 1020.46 1020.64 1020.81 1020.86
999.63 999.40 1000.38 1001.51 1002.64 1004.19 1005.36 1006.39 1007.64 1008.97 1010.00 1011.10 1012.00 1012.60 1012.92 1013.09 1013.90 1014.37 1014.56 1014.28 1014.63 1015.50 1017.08 1019.75 1021.52 1021.25 1020.50 1021.00 1021.71 1021.72 1022.04 1022.22 1022.54 1022.89 1023.08 1023.11 1023.11 1023.11 1022.56 1020.87 1020.34 1019.82 1019.48 1019.48 1019.58 1019.62 1019.80 1020.12 1020.39 1020.51 1020.58 1020.64 1020.68 1020.69
998.76 998.52 999.73 1000.90 1002.04 1003.37 1004.92 1006.11 1007.26 1008.80 1009.99 1011.16 1012.10 1012.80 1013.23 1013.86 1014.72 1014.94 1014.68 1014.64 1014.90 1016.15 1018.30 1020.11 1020.84 1021.39 1021.15 1021.86 1022.26 1022.62 1022.90 1023.63 1023.67 1023.66 1023.78 1023.77 1023.60 1022.76 1020.87 1020.39 1020.01 1019.85 1019.76 1019.74 1019.97 1020.14 1020.40 1020.51 1020.53 1020.51 1020.50 1020.50 1020.63 1020.48
998.18 998.49 998.93 1000.67 1001.53 1002.84 1004.49 1005.82 1007.04 1008.49 1010.10 1011.28 1012.30 1013.18 1014.56 1014.90 1014.67 1014.70 1015.08 1015.55 1016.01 1017.62 1018.58 1020.31 1020.78 1021.25 1021.43 1022.21 1023.00 1023.69 1024.05 1024.74 1024.74 1024.51 1024.18 1023.90 1022.92 1021.14 1020.32 1019.80 1019.52 1019.46 1019.48 1019.58 1019.88 1020.12 1020.24 1020.17 1020.30 1020.21 1020.24 1020.15 1020.24 1020.16
997.44 997.05 998.05 999.66 1000.74 1002.47 1004.17 1005.56 1006.97 1008.54 1010.04 1011.05 1012.61 1014.10 1014.95 1014.87 1015.07 1016.04 1016.93 1017.40 1018.34 1019.14 1019.46 1020.06 1020.40 1020.78 1021.21 1021.78 1022.97 1023.74 1024.64 1025.12 1025.14 1024.85 1024.61 1024.28 1023.01 1020.86 1019.99 1019.63 1019.22 1018.98 1018.97 1019.24 1019.15 1019.15 1019.09 1019.20 1019.33 1019.55 1019.76 1019.76 1019.72 1019.57
996.94 996.71 997.68 998.88 1000.62 1002.19 1003.64 1005.15 1006.90 1007.71 1008.91 1009.89 1011.29 1013.42 1014.79 1015.42 1016.19 1016.93 1017.94 1018.68 1018.80 1018.90 1019.51 1019.71 1020.12 1020.26 1021.18 1021.27 1022.52 1023.96 1024.65 1025.39 1025.18 1024.69 1024.73 1023.78 1021.40 1020.16 1019.83 1019.23 1018.68 1018.56 1018.72 1018.90 1019.00 1019.21 1019.36 1019.73 1019.58 1019.59 1019.50 1019.34 1019.14 1018.96
996.47 996.58 997.27 998.75 1000.68 1001.73 1003.48 1004.93 1006.74 1007.76 1008.74 1010.09 1011.51 1013.72 1014.91 1016.30 1016.63 1017.08 1017.69 1018.34 1018.41 1018.30 1018.68 1019.11 1020.17 1020.37 1021.16 1021.68 1023.00 1023.99 1024.94 1025.05 1024.60 1024.64 1023.68 1022.03 1020.57 1019.88 1019.34 1018.75 1018.47 1018.35 1018.53 1018.76 1018.84 1018.71 1018.83 1019.01 1019.09 1019.22 1019.07 1018.84 1018.66 1018.55
995.95 996.64 996.96 998.19 1000.75 1001.98 1003.61 1005.10 1006.77 1007.70 1008.54 1010.04 1011.96 1014.38 1014.64 1015.43 1014.84 1014.46 1014.85 1015.48 1016.03 1016.64 1017.70 1018.73 1020.07 1020.59 1021.44 1022.32 1023.27 1024.19 1024.69 1024.49 1024.67 1024.20 1022.47 1020.78 1019.87 1019.44 1019.14 1018.89 1018.67 1018.59 1018.59 1018.45 1018.54 1018.66 1018.78 1018.85 1018.85 1018.76 1018.62 1018.29 1018.48 1018.27
995.28 995.72 995.89 998.48 1000.76 1002.05 1004.08 1005.37 1006.89 1008.11 1009.03 1010.41 1011.19 1012.60 1013.69 1013.13 1013.42 1013.83 1014.36 1015.16 1015.82 1016.36 1017.20 1018.86 1020.15 1020.95 1022.21 1022.98 1023.41 1024.12 1024.56 1024.19 1023.37 1021.92 1020.63 1019.68 1019.36 1019.28 1019.13 1018.92 1018.81 1018.72 1018.65 1018.83 1018.71 1018.78 1018.59 1018.59 1018.70 1018.47 1018.28 1017.91 1017.90 1017.80
994.88 995.25 995.90 998.74 1000.51 1002.57 1004.62 1006.05 1007.60 1008.83 1010.18 1011.12 1011.76 1012.36 1012.59 1012.80 1013.89 1014.12 1014.63 1015.33 1015.34 1016.29 1017.43 1018.42 1020.44 1021.60 1022.62 1022.87 1023.56 1023.28 1023.36 1022.20 1020.75 1020.07 1019.23 1019.23 1019.31 1019.14 1019.09 1018.98 1018.75 1018.86 1018.96 1018.78 1018.76 1018.64 1018.62 1018.52 1018.44 1018.31 1018.10 1017.65 1017.48 1017.43
994.20 993.96 996.49 998.67 1000.75 1003.23 1005.38 1006.69 1008.61 1010.21 1011.27 1011.80 1011.99 1011.63 1011.38 1011.60 1012.59 1013.53 1014.23 1014.58 1014.94 1015.92 1017.75 1018.75 1020.49 1021.59 1022.21 1022.44 1022.66 1022.20 1021.19 1019.71 1018.96 1018.74 1018.74 1018.84 1018.90 1018.83 1018.79 1018.81 1018.70 1018.83 1018.78 1018.65 1018.55 1018.47 1018.29 1018.02 1018.01 1018.15 1018.01 1017.45 1017.26 1016.96
994.18 995.49 996.95 999.20 1001.66 1003.88 1006.36 1007.86 1009.34 1010.67 1011.70 1011.74 1011.94 1011.53 1011.38 1011.57 1012.16 1013.25 1013.87 1014.09 1015.03 1016.16 1016.90 1017.86 1018.99 1020.51 1020.88 1020.74 1020.52 1019.45 1018.99 1018.55 1018.32 1018.32 1018.42 1018.53 1018.51 1018.48 1018.51 1018.35 1018.13 1018.12 1018.12 1017.98 1017.92 1017.94 1017.85 1017.83 1017.84 1017.90 1017.80 1017.48 1017.28 1016.92
994.47 996.79 998.12 999.88 1001.03 1002.99 1006.55 1009.08 1009.44 1010.63 1011.36 1011.68 1011.65 1011.25 1011.44 1012.08 1012.47 1012.84 1013.42 1014.38 1014.85 1015.48 1016.71 1017.45 1018.22 1018.89 1018.81 1018.38 1018.13 1018.15 1018.12 1018.11 1018.14 1018.19 1018.07 1017.92 1017.99 1017.93 1017.68 1017.60 1017.58 1017.58 1017.51 1017.48 1017.18 1017.12 1017.30 1017.32 1017.43 1017.53 1017.50 1017.32 1017.30 1017.06
995.43 997.47 999.11 1000.24 1001.21 1003.00 1006.57 1008.90 1009.31 1010.06 1010.92 1011.23 1011.33 1011.61 1012.08 1012.55 1013.18 1013.53 1014.10 1014.73 1015.26 1015.81 1016.71 1016.88 1017.00 1016.68 1016.73 1016.64 1016.81 1016.99 1017.22 1017.47 1017.83 1018.23 1018.10 1017.71 1017.40 1017.45 1017.34 1017.27 1017.33 1017.33 1017.38 1017.26 1017.17 1016.89 1016.82 1016.90 1017.06 1016.97 1016.86 1016.78 1016.72 1016.59
997.07 998.86 999.86 1000.70 1002.84 1004.35 1006.42 1008.22 1009.15 1009.71 1010.39 1010.79 1011.19 1011.64 1012.84 1013.25 1013.83 1014.26 1014.77 1014.99 1015.51 1015.77 1015.50 1015.17 1015.40 1015.23 1015.54 1015.78 1015.96 1016.26 1016.72 1017.10 1017.41 1017.43 1017.28 1017.42 1017.05 1017.31 1017.11 1017.05 1017.03 1017.06 1017.26 1017.21 1017.23 1016.86 1016.67 1016.76 1016.76 1016.64 1016.35 1016.08 1015.97 1015.85
997.44 999.52 1001.06 1002.69 1004.19 1005.62 1007.03 1007.88 1008.37 1009.35 1010.20 1010.69 1011.27 1011.94 1013.18 1013.92 1014.29 1014.50 1014.77 1015.17 1014.98 1014.03 1014.15 1014.47 1014.49 1014.74 1015.23 1015.48 1015.54 1015.77 1015.92 1016.28 1016.35 1016.56 1016.70 1016.81 1016.95 1017.10 1016.92 1016.82 1016.91 1016.86 1016.84 1016.92 1016.97 1016.83 1016.63 1016.57 1016.47 1016.29 1016.11 1015.76 1015.54 1015.35
998.43 1000.06 1001.87 1003.24 1004.83 1006.13 1008.13 1008.02 1008.68 1009.50 1010.04 1011.04 1011.54 1012.67 1013.62 1014.02 1014.20 1014.31 1014.57 1014.30 1013.50 1013.03 1013.07 1013.39 1013.64 1013.95 1014.32 1014.54 1014.95 1015.11 1015.33 1015.72 1016.14 1016.16 1016.20 1016.34 1016.35 1016.47 1016.61 1016.54 1016.65 1016.86 1016.81 1016.78 1016.85 1016.80 1016.69 1016.47 1016.31 1016.00 1015.75 1015.55 1015.34 1015.12
999.15 1000.90 1003.00 1004.29 1005.13 1006.65 1007.69 1008.28 1008.47 1009.02 1010.21 1011.16 1011.98 1013.06 1013.55 1013.83 1014.15 1014.14 1014.20 1013.46 1012.60 1012.48 1012.64 1012.69 1013.23 1013.97 1014.35 1014.59 1014.83 1014.79 1014.86 1015.24 1015.37 1015.56 1015.61 1015.94 1016.06 1016.03 1016.03 1016.22 1016.41 1016.44 1016.54 1016.79 1016.89 1016.81 1016.66 1016.55 1016.24 1016.00 1015.87 1015.67 1015.43 1015.13
1000.28 1003.21 1003.63 1004.73 1005.64 1006.52 1007.16 1007.91 1008.50 1009.30 1010.22 1011.01 1011.65 1012.44 1013.01 1013.59 1013.91 1013.92 1013.49 1012.56 1012.09 1012.02 1011.97 1012.47 1013.17 1013.52 1013.92 1014.17 1014.29 1014.18 1014.20 1014.38 1014.66 1015.06 1014.83 1015.06 1015.60 1015.93 1016.24 1016.35 1016.55 1016.43 1016.58 1016.89 1016.93 1016.65 1016.35 1016.29 1016.18 1016.11 1015.90 1015.65 1015.39 1014.96
1001.18 1002.95 1003.66 1004.44 1005.43 1005.58 1006.51 1007.35 1007.91 1008.56 1009.30 1010.36 1011.16 1011.87 1012.40 1012.79 1013.28 1013.12 1012.46 1011.63 1011.56 1011.57 1011.81 1012.47 1012.95 1013.38 1013.60 1013.65 1013.95 1014.01 1013.79 1013.77 1014.08 1014.58 1014.81 1014.90 1015.21 1015.59 1015.91 1016.34 1016.57 1016.40 1016.51 1016.69 1016.45 1016.22 1016.10 1015.99 1015.94 1015.86 1015.70 1015.50 1015.25 1014.87
1002.17 1003.26 1003.76 1003.81 1004.04 1004.73 1005.97 1006.95 1007.42 1007.63 1008.68 1009.88 1010.78 1011.43 1011.73 1012.37 1012.31 1011.74 1011.12 1010.94 1011.19 1011.01 1011.15 1011.59 1012.00 1012.36 1012.58 1012.93 1013.37 1013.49 1013.66 1013.74 1014.12 1014.44 1014.61 1015.06 1015.11 1015.27 1015.38 1015.91 1016.00 1016.00 1016.30 1016.22 1015.93 1015.89 1015.87 1015.84 1015.83 1015.75 1015.63 1015.39 1015.16 1014.88
1001.99 1002.62 1003.10 1003.74 1003.96 1004.36 1005.55 1006.77 1007.54 1008.14 1008.75 1009.19 1009.84 1010.35 1010.39 1010.46 1010.68 1010.43 1010.32 1010.28 1010.66 1010.87 1011.20 1011.36 1011.48 1011.84 1012.36 1012.59 1012.88 1013.39 1013.84 1014.12 1014.55 1014.92 1015.15 1015.47 1015.43 1015.45 1015.38 1015.73 1015.61 1015.82 1016.20 1016.07 1015.85 1015.76 1015.74 1015.73 1015.70 1015.61 1015.44 1015.30 1015.02 1014.71
1002.59 1002.87 1002.68 1003.65 1004.41 1005.30 1006.14 1006.76 1007.24 1007.60 1007.90 1008.38 1008.80 1009.17 1009.53 1009.62 1009.51 1009.65 1009.91 1010.46 1010.68 1011.25 1011.67 1011.92 1012.38 1012.38 1012.48 1012.62 1012.90 1013.21 1013.54 1013.97 1014.72 1014.84 1015.15 1015.38 1015.84 1015.82 1015.75 1015.77 1015.73 1015.92 1015.91 1015.84 1015.72 1015.68 1015.66 1015.54 1015.51 1015.45 1015.36 1015.23 1014.97 1014.61
1002.82 1003.04 1003.70 1004.64 1005.26 1006.00 1006.33 1006.28 1006.87 1007.30 1007.62 1007.81 1008.00 1008.67 1008.91 1009.02 1009.09 1009.46 1010.00 1010.77 1011.11 1011.20 1011.26 1011.59 1011.94 1012.03 1012.35 1012.64 1013.09 1013.50 1013.55 1013.65 1013.94 1014.10 1014.57 1014.57 1014.99 1015.09 1015.52 1015.65 1015.75 1015.86 1015.80 1015.71 1015.83 1015.85 1015.75 1015.60 1015.47 1015.39 1015.28 1015.14 1014.96 1014.67
1003.20 1003.40 1004.03 1004.84 1005.90 1006.54 1006.79 1006.98 1007.32 1007.62 1007.89 1008.14 1008.19 1008.61 1009.23 1009.38 1009.36 1009.56 1009.86 1010.06 1010.49 1011.08 1011.48 1011.73 1011.80 1011.94 1012.10 1012.40 1012.73 1013.24 1013.46 1013.71 1013.68 1013.70 1013.77 1013.80 1014.38 1015.02 1015.33 1015.41 1015.57 1015.68 1015.59 1015.70 1015.86 1015.92 1015.90 1015.78 1015.70 1015.63 1015.50 1015.34 1015.18 1014.99
1003.72 1004.22 1004.91 1006.11 1007.15 1007.49 1007.31 1007.61 1007.99 1008.29 1008.65 1008.74 1009.04 1009.25 1009.63 1009.98 1010.48 1010.02 1009.42 1009.97 1010.75 1011.09 1010.76 1010.89 1011.15 1011.38 1011.59 1011.76 1012.14 1012.36 1012.28 1012.69 1013.14 1013.54 1013.46 1013.69 1014.53 1015.07 1015.20 1015.32 1015.49 1015.51 1015.44 1015.61 1015.81 1015.91 1015.91 1015.89 1015.86 1015.83 1015.71 1015.52 1015.33 1015.19
1005.05 1005.27 1005.74 1006.36 1007.10 1007.66 1008.09 1008.22 1008.87 1009.37 1009.51 1009.52 1009.52 1009.56 1009.85 1010.29 1010.36 1009.62 1009.91 1010.02 1010.08 1010.11 1010.17 1010.24 1010.43 1010.67 1010.87 1011.20 1011.72 1012.07 1012.38 1012.39 1012.90 1013.37 1013.20 1013.69 1014.51 1014.84 1014.94 1015.17 1015.34 1015.35 1015.43 1015.61 1015.84 1015.93 1015.98 1016.02 1016.04 1016.01 1015.92 1015.76 1015.56 1015.47
Wind_Speed
29 31 31 29 27 24 21 20 17 14 11 9 7 4 3 2 10 4 1 1 4 4 2 3 4 4 3 3 6 5 5 2 3 4 4 4 3 4 2 4 6 7 7 4 3 2 8 4 5 6 5 3 2 0
25 33 32 31 28 25 23 21 18 16 13 10 7 5 4 4 7 4 3 1 2 7 3 1 3 2 3 2 6 1 3 4 6 6 1 3 1 2 3 3 2 3 6 7 10 8 4 0 4 3 4 4 1 1
23 34 33 32 29 27 25 22 20 16 13 9 6 5 4 4 7 6 3 3 4 5 4 4 3 4 5 4 2 7 2 5 3 4 5 3 3 5 4 6 2 4 4 4 3 3 4 5 2 4 2 4 4 2
20 31 32 32 30 28 26 23 21 18 15 11 7 4 3 6 9 7 4 0 4 4 6 2 2 4 6 6 3 2 7 5 6 3 3 4 3 4 4 3 5 5 5 5 5 3 4 2 3 4 3 1 2 5
21 25 32 30 31 29 26 24 21 19 17 13 8 3 5 10 14 9 4 2 1 6 5 2 2 5 6 3 7 6 6 5 3 3 3 3 2 4 1 3 4 5 7 6 6 5 5 4 5 5 5 2 1 4
18 29 33 31 30 29 27 25 22 19 17 14 10 8 10 6 3 4 4 2 3 3 7 3 3 5 6 6 9 8 4 4 3 4 3 2 2 4 4 4 6 4 3 4 3 4 4 7 6 4 2 1 2 3
18 29 33 30 31 31 28 26 23 21 19 16 11 8 7 8 5 3 5 2 1 2 6 4 3 4 3 4 4 4 4 3 3 2 1 2 1 4 3 3 4 1 2 3 5 7 3 4 5 3 2 3 3 4
17 29 31 34 32 31 28 27 26 22 20 18 13 10 14 16 10 4 4 5 3 6 5 5 1 2 2 2 2 3 3 3 5 2 2 1 2 2 3 6 4 4 1 4 6 2 5 4 4 3 4 2 5 7
19 29 36 33 31 32 30 29 28 25 22 20 21 13 5 5 3 2 1 5 4 5 6 4 7 5 1 2 2 3 2 3 2 2 1 3 1 5 6 5 4 5 6 6 4 2 3 4 6 5 4 6 5 8
14 26 35 35 33 33 32 31 30 28 26 21 5 4 3 2 1 2 7 5 6 5 4 4 1 3 4 1 2 3 3 1 1 2 1 2 5 6 6 6 5 5 4 7 6 4 5 5 7 7 8 7 7 8
17 30 38 37 35 34 35 33 32 31 18 3 4 3 1 1 4 4 3 4 1 3 1 3 3 5 1 4 4 2 3 0 2 3 4 2 5 4 3 4 6 8 8 9 6 5 7 7 7 7 7 7 7 8
18 25 35 36 36 38 37 36 35 10 6 8 9 7 3 3 4 6 1 2 2 7 3 5 4 4 2 3 5 1 4 3 3 2 3 4 6 4 4 5 4 4 6 7 6 8 7 6 8 7 7 8 7 7
19 16 35 39 37 39 38 38 25 22 21 4 6 5 3 2 5 9 9 4 3 6 5 5 3 4 3 4 4 4 4 4 2 2 5 6 3 4 6 3 1 4 5 5 5 6 7 7 7 5 7 7 7 7
25 12 38 41 38 39 38 33 30 17 4 4 7 5 6 4 6 7 6 6 4 5 9 5 4 4 2 4 3 5 3 3 2 2 7 4 5 3 1 1 2 2 3 2 4 5 6 6 7 8 7 6 6 7
19 21 43 42 39 40 36 31 15 4 4 4 5 7 7 3 3 4 4 5 2 8 6 5 4 4 3 5 1 4 4 5 6 6 4 4 4 4 2 1 0 2 3 4 2 4 6 7 7 7 8 7 6 6
14 36 22 46 45 41 32 19 5 3 4 3 3 5 2 5 3 3 3 6 2 6 4 4 4 5 1 5 4 6 7 8 5 5 4 4 4 3 2 3 5 4 4 5 6 5 6 7 7 7 7 7 7 6
34 4 45 47 46 38 27 8 4 5 3 3 0 1 2 4 6 4 5 4 8 5 3 4 6 7 3 4 2 5 7 5 4 3 3 6 5 4 4 5 4 5 6 6 4 6 5 6 5 5 7 7 6 6
11 32 50 47 33 27 5 4 5 4 3 2 2 4 3 3 8 6 4 9 5 3 4 5 7 4 6 7 5 5 5 3 2 3 3 4 5 5 5 4 5 6 6 7 7 6 4 5 5 5 6 5 6 5
31 30 47 44 23 12 7 2 3 5 2 2 1 2 3 4 3 5 8 4 3 4 6 3 5 4 5 5 4 4 3 3 3 3 3 3 3 5 7 5 5 6 6 5 3 3 4 4 3 3 2 2 2 4
49 47 43 30 9 6 8 3 2 4 4 4 3 3 4 4 3 4 9 3 4 4 2 3 5 5 5 4 4 4 4 4 3 1 3 5 5 6 6 5 5 5 4 5 4 4 1 2 2 2 2 2 3 5
41 30 27 8 6 6 5 4 3 3 4 3 3 3 4 3 4 3 3 2 3 4 4 4 4 4 4 2 3 3 4 5 5 6 6 4 4 3 4 5 3 2 2 3 4 4 1 3 3 3 4 3 3 4
21 30 8 4 5 4 5 2 5 4 3 4 4 4 4 3 3 3 3 2 4 5 5 4 4 4 4 5 5 6 5 6 6 4 7 5 3 3 4 4 2 3 3 3 3 3 2 2 3 4 4 4 5 6
27 12 5 5 6 5 4 2 4 1 6 3 3 4 2 3 2 2 2 4 4 3 5 5 5 6 7 4 4 4 6 6 4 5 4 4 4 4 4 4 3 3 2 2 1 0 2 4 4 3 3 6 5 5
11 7 5 4 5 5 4 3 2 4 4 3 4 5 3 3 2 2 3 4 3 3 5 7 5 4 2 1 3 4 4 5 4 3 4 4 4 3 3 2 2 2 2 1 1 1 2 3 6 5 5 5 6 7
10 2 5 6 3 5 5 4 4 4 4 4 4 4 2 3 3 3 3 4 3 4 4 4 4 5 4 3 3 4 4 5 5 5 3 4 3 3 2 2 1 0 2 3 1 1 1 2 3 6 5 5 9 9
8 3 4 5 4 5 6 6 5 5 5 4 3 4 2 3 3 5 4 4 3 3 4 6 6 4 4 5 4 3 3 3 4 3 1 4 4 4 4 4 3 2 2 3 1 2 3 2 3 5 5 8 13 10
5 4 2 0 5 7 6 4 3 5 5 5 4 4 4 5 6 4 2 3 3 3 4 5 6 6 5 3 3 2 3 4 3 2 3 3 3 3 4 4 4 3 3 4 1 0 2 2 3 4 5 6 6 6
4 3 7 4 5 3 7 5 4 4 4 4 5 5 10 9 6 4 5 2 4 3 3 3 3 4 4 3 4 5 4 4 5 4 4 4 3 1 3 3 4 7 2 1 1 2 1 2 3 4 4 6 7 6
4 2 5 8 6 5 3 5 5 4 5 5 5 4 5 4 3 3 1 2 3 4 4 4 1 3 4 4 4 3 4 5 7 6 6 3 2 1 2 3 4 2 3 2 5 5 5 4 2 3 4 5 5 6
3 2 5 4 4 3 2 3 4 3 1 3 4 3 2 1 2 2 4 4 4 4 4 3 4 5 4 5 4 3 3 4 4 4 5 5 5 3 4 4 4 3 1 3 2 3 5 4 3 3 4 4 5 5
3 3 5 5 4 3 2 2 3 3 2 2 3 4 3 1 2 2 4 3 3 3 4 2 1 3 5 5 5 5 4 4 5 6 5 5 5 4 4 4 3 3 3 3 2 2 2 2 3 3 4 5 6 6
4 4 5 5 3 2 1 3 2 3 2 3 2 3 3 4 1 4 1 4 4 4 8 5 5 5 5 3 4 3 4 6 6 5 8 6 5 4 4 2 1 2 4 4 2 1 2 3 2 3 4 5 6 5
3 4 4 4 3 3 2 4 3 2 3 2 2 1 3 5 7 4 2 0 3 1 1 3 4 4 6 7 6 5 6 5 10 13 15 12 9 7 4 3 2 3 5 4 3 2 3 3 3 4 5 5 5 5
Wind_Direction
234 208 207 210 210 204 201 194 199 202 209 222 240 258 270 195 161 104 154 125 116 106 342 16 11 129 101 124 141 181 75 349 55 83 125 196 143 221 159 180 185 175 145 183 88 81 288 177 80 173 199 201 142 317
257 203 200 203 204 199 197 192 189 194 199 205 229 253 265 227 182 113 102 351 85 82 146 18 81 45 12 4 124 60 147 155 172 96 156 105 140 91 145 256 56 273 184 183 178 214 246 310 136 155 150 143 154 14
292 203 196 197 198 196 196 188 183 185 184 190 208 251 268 278 166 114 125 142 68 97 19 49 16 335 26 10 228 120 285 161 167 168 155 157 168 128 170 235 209 224 174 187 82 249 193 142 109 101 88 72 31 325
278 205 192 196 195 193 192 183 179 182 177 186 195 241 250 151 131 104 107 150 89 109 113 265 338 22 329 353 26 105 137 77 95 71 101 133 154 164 196 192 187 204 135 173 256 276 68 350 133 114 77 97 255 276
268 231 188 194 192 190 186 177 175 176 170 175 178 173 130 127 114 91 94 55 126 125 147 165 333 350 348 16 54 57 97 100 89 65 77 221 154 111 7 44 259 187 189 171 229 206 153 186 163 165 167 175 341 6
272 215 185 189 191 185 178 169 168 166 163 163 164 144 129 126 103 70 50 348 3 100 101 105 309 11 2 30 52 45 39 71 84 131 202 257 312 100 121 204 250 250 231 178 226 155 139 144 164 175 165 80 319 292
266 211 184 185 187 183 173 162 159 158 157 153 152 141 113 96 68 88 165 224 328 80 90 69 17 330 330 26 27 24 29 56 89 107 144 152 22 88 105 202 231 263 208 151 153 120 88 170 194 184 223 257 281 278
257 192 182 188 182 176 166 157 152 152 149 146 142 120 99 93 105 39 351 35 74 88 67 112 308 16 342 61 53 0 40 23 19 114 28 85 22 67 258 237 237 246 258 157 189 224 172 145 148 223 226 248 297 291
241 207 182 185 178 165 160 153 147 145 143 135 127 122 70 39 73 197 319 58 60 101 121 95 137 202 18 64 70 37 40 46 299 79 10 74 330 228 228 202 195 186 188 196 183 130 125 177 218 251 265 281 256 273
261 221 180 189 173 159 155 150 144 139 137 129 89 70 73 282 196 63 12 29 23 351 37 93 178 127 106 56 39 76 15 89 96 260 38 96 258 263 248 226 238 231 224 154 142 196 211 223 226 247 240 252 248 262
244 194 176 179 160 155 152 147 141 137 129 102 116 91 167 339 62 38 77 92 345 30 42 155 159 132 287 117 135 111 164 330 91 254 136 282 274 247 266 285 246 238 210 206 215 209 208 213 227 240 266 263 264 266
220 200 176 161 155 153 148 144 145 138 144 152 121 99 92 58 55 94 75 58 150 196 176 135 177 140 144 114 101 357 112 51 198 139 81 252 250 252 283 300 326 184 208 219 221 250 278 278 261 254 257 260 261 260
210 226 172 157 156 151 150 145 145 121 121 89 68 85 124 299 66 168 178 236 184 178 178 156 125 123 90 66 71 90 90 201 102 69 230 230 258 272 263 232 165 160 166 187 215 214 240 260 279 244 269 269 271 282
205 231 167 150 155 150 147 141 141 142 101 105 139 138 183 190 233 182 170 148 174 128 131 110 92 111 118 73 128 101 215 86 58 232 234 238 223 208 332 8 65 37 8 322 278 270 273 282 285 288 272 272 284 277
198 196 148 145 149 142 144 140 125 56 80 126 114 192 194 165 72 106 120 102 93 129 116 96 64 88 38 90 76 96 160 227 213 227 223 212 202 175 217 348 15 320 308 301 322 302 286 285 283 282 280 277 272 269
219 160 144 147 143 142 143 123 74 69 55 86 70 97 93 81 84 108 106 116 147 128 94 67 109 73 112 134 106 204 156 219 231 213 211 152 175 191 225 243 243 259 253 255 270 263 269 278 278 280 292 291 287 273
169 95 144 141 140 135 129 98 84 59 95 75 223 126 116 86 126 132 140 145 154 111 124 117 102 185 107 74 227 193 209 216 204 207 178 173 181 208 236 248 229 228 244 254 261 277 270 275 296 305 298 302 310 288
124 137 136 134 133 120 67 62 85 101 141 168 139 174 117 87 119 126 132 148 114 121 146 158 130 145 172 171 220 224 221 230 192 172 178 200 218 235 220 255 273 270 275 269 253 257 252 292 301 279 296 304 309 316
139 138 137 138 136 116 110 96 106 112 131 146 116 76 79 99 53 106 129 107 107 118 106 50 103 175 201 206 199 204 199 177 168 196 227 245 213 259 275 267 259 265 261 258 269 268 263 265 238 265 277 333 296 302
136 139 142 139 122 88 91 95 109 116 152 157 103 96 86 93 103 97 142 92 111 112 94 161 197 196 180 208 182 171 166 164 138 197 277 266 253 263 269 263 265 269 286 297 288 278 287 316 191 198 221 265 310 304
131 143 130 100 54 61 93 129 92 128 134 94 119 92 77 69 92 120 139 156 95 202 218 185 177 199 171 176 155 148 173 163 192 193 218 262 265 238 276 277 267 271 256 282 272 288 348 238 250 282 279 280 286 269
126 128 100 68 84 75 80 36 113 125 80 123 97 84 95 100 130 142 132 127 216 219 175 173 188 168 186 207 210 195 211 211 228 236 249 239 264 279 275 262 281 273 262 243 246 268 287 263 265 278 283 283 292 304
121 115 69 77 88 68 80 43 91 39 107 116 86 92 92 122 158 184 155 214 245 202 180 181 177 184 202 203 178 207 207 209 231 231 249 235 230 239 252 260 220 221 246 289 239 305 301 309 298 299 311 316 308 302
77 59 75 83 80 101 116 89 92 88 85 93 110 118 146 132 175 80 221 235 230 189 180 196 157 137 87 149 211 229 211 190 224 250 218 212 242 256 188 169 163 168 155 128 103 53 355 344 355 358 346 334 324 312
89 52 91 82 93 109 108 110 100 102 117 158 125 114 136 145 132 180 229 257 223 218 198 161 159 177 174 207 243 246 199 184 192 222 236 176 135 96 93 102 117 127 133 125 220 221 26 11 342 329 315 319 315 309
82 98 110 143 156 122 151 127 150 134 123 121 108 125 129 115 121 227 229 219 218 204 166 176 175 168 214 200 204 212 237 170 134 142 228 169 170 163 169 162 181 234 221 208 203 10 315 298 315 318 315 314 320 324
102 117 129 7 114 114 98 74 92 91 87 132 158 152 129 144 212 242 265 212 194 221 185 170 167 177 183 174 180 168 137 127 123 155 128 142 155 167 146 164 179 193 209 213 132 334 296 323 314 309 309 309 315 313
96 140 130 147 97 73 101 84 107 141 157 173 128 164 165 179 206 214 203 194 177 139 107 102 124 138 138 141 134 124 102 106 99 92 77 51 39 128 128 128 127 125 116 48 34 2 334 311 303 306 321 322 314 312
83 88 87 72 68 68 106 145 168 175 149 150 135 159 189 205 202 168 187 161 121 119 113 118 60 113 89 86 104 128 135 148 154 167 188 169 176 261 185 155 133 151 163 73 18 18 340 330 337 334 322 316 312 308
88 48 89 86 98 112 148 145 130 127 108 135 124 100 67 323 253 111 116 128 140 181 182 164 163 159 162 154 157 184 209 185 193 161 176 180 200 181 164 162 162 193 169 87 41 2 354 358 340 346 353 348 345 339
115 102 75 58 71 37 62 121 83 78 62 73 39 100 129 354 341 208 196 172 132 120 137 148 170 182 159 169 168 173 212 224 198 177 146 119 118 129 149 156 167 172 127 99 55 19 349 341 337 346 353 356 350 1
42 62 106 98 92 345 40 56 58 69 46 59 50 80 55 57 313 282 179 132 150 192 224 195 178 215 205 175 169 175 171 152 159 162 139 122 126 142 132 133 197 204 136 127 103 50 27 357 354 9 352 350 350 352
68 55 71 96 71 67 15 83 52 69 39 60 332 158 183 174 216 246 37 332 198 222 233 189 186 181 172 164 170 169 165 141 147 146 133 134 153 170 159 179 212 177 145 130 123 98 52 31 23 17 4 345 349 5